Location: Washington
(38.8950°N, 77.0367°W)
Time: 16:10:04
(UTC-05:00)

N. Korean satellite - Visible Passes

Search period start: 08 February 2016 00:00
Search period end: 18 February 2016 00:00
Orbit: 467 x 529 km, 97.3° (Epoch: 08 February)

Date Brightness Start Highest point End Pass type
(mag) Time Alt. Az. Time Alt. Az. Time Alt. Az.
08 Feb 7.0 19:12:27 10° S 19:16:04 62° W 19:19:40 10° NNW visible
09 Feb 6.5 18:52:11 10° SSE 18:55:49 68° ENE 18:59:24 10° N visible
10 Feb 7.1 18:32:15 10° SE 18:35:36 35° ENE 18:38:54 10° N visible
10 Feb 9.9 20:07:50 10° WSW 20:09:26 12° W 20:11:01 10° WNW visible
11 Feb 7.9 18:12:43 10° ESE 18:15:25 20° ENE 18:18:05 10° NNE visible
11 Feb 9.1 19:46:08 10° SSW 19:49:00 22° W 19:51:52 10° NW visible
12 Feb 7.9 19:25:12 10° S 19:28:38 40° W 19:32:01 10° NNW visible
13 Feb 6.6 19:04:40 10° S 19:08:17 79° WSW 19:11:52 10° NNW visible
14 Feb 6.6 18:44:28 10° SSE 18:47:58 52° ENE 18:51:27 10° N visible
15 Feb 7.4 18:24:36 10° SE 18:27:42 28° ENE 18:30:46 10° NNE visible
15 Feb 9.7 19:59:17 10° SW 20:01:27 15° W 20:03:35 10° WNW visible
16 Feb 8.7 19:37:53 10° SSW 19:40:58 27° W 19:44:02 10° NW visible
17 Feb 7.4 19:17:03 10° S 19:20:32 51° W 19:24:00 10° NNW visible
